[[{"header":{"parameterUnit":"m.s-1","parameterCategory":1,"la1":30.2991,"la2":30.254,"lo1":-89.0895,"lo2":-89.0444,"dy":0.0017,"dx":0.0017,"nx":28,"ny":28,"refTime":"2023-10-24T21:00:00:Z","depth":0,"parameterNumber":2,"parameterNumberName":"U-component_of_WINDS"},"data":[0,0,0,0,0,0,0,0,0,0,0,0,0,0,0,0,0,0,0,0,0,0,0,0,0,0,0,0,0,0,0,0,0,0,0,0,0,0,0,0,0,0,0,0,0,0,0,0,0,0,0,0,0,0,0,0,0,0,-6.0889,-6.0891,0,-6.1048,-6.105,-6.1052,-6.1005,-6.1002,-6.0998,-6.0995,-6.1164,-6.1172,-6.1179,0,0,0,0,0,0,0,0,0,0,0,0,0,-6.0552,-6.0559,-6.0889,-6.0891,-6.0893,-6.1048,-6.105,-6.1052,-6.1006,-6.1002,-6.0998,-6.0994,-6.1162,-6.1171,-6.118,0,0,0,0,0,0,0,0,0,0,0,0,0,-6.0704,-6.0561,-6.0889,-6.0888,-6.089,-6.1047,-6.105,-6.1053,-6.1006,-6.1002,-6.0997,-6.0992,-6.1159,-6.117,-6.1181,-6.135,0,0,-6.1216,-6.1221,0,0,0,0,0,0,0,0,-6.0695,-6.0716,-6.0886,-6.0889,-6.0891,-6.1001,-6.0993,-6.1153,-6.1008,-6.0962,-6.0995,-6.099,-6.1114,-6.1129,-6.117,-6.1358,-6.1365,-6.1217,-6.1224,-6.1228,-6.1232,0,0,0,0,0,0,0,-6.0685,-6.0709,-6.0952,-6.0889,-6.0892,-6.0883,-6.0899,-6.1023,-6.1065,-6.0966,-6.0963,-6.0982,-6.1115,-6.1159,-6.1174,-6.1368,-6.1216,-6.1226,-6.1233,-6.1238,-6.1705,-6.171,0,0,0,0,0,0,-6.0672,-6.0701,-6.0947,-6.0957,-6.0779,-6.0893,-6.0911,-6.0971,-6.1063,-6.1072,-6.0986,-6.0979,-6.1142,-6.116,-6.1179,-6.1383,-6.1228,-6.1239,-6.1246,-6.1699,-6.1706,-6.1712,0,0,0,0,0,0,-6.0665,-6.0694,-6.0941,-6.0828,-6.0859,-6.0904,-6.0972,-6.0977,-6.1021,-6.1078,-6.1086,-6.1023,-6.1139,-6.1163,-6.1308,-6.1388,-6.1244,-6.1254,-6.1693,-6.1701,-6.1709,-6.1792,0,0,0,0,0,0,-6.0656,-6.0692,-6.0755,-6.083,-6.0865,-6.1064,-6.0977,-6.0983,-6.104,-6.1032,-6.1115,-6.1124,-6.1137,-6.1291,-6.1319,-6.1401,-6.1263,-6.1685,-6.1696,-6.1706,-6.1783,-6.1803,-6.182,0,0,0,0,0,-6.0644,-6.0773,-6.0758,-6.0788,-6.0944,-6.1069,-6.1089,-6.1099,-6.1047,-6.1111,-6.1148,-6.1121,-6.1376,-6.1306,-6.1338,-6.1424,-6.168,-6.1693,-6.1706,-6.1774,-6.1799,-6.1819,0,0,0,0,0,0,-6.0707,-6.0782,-6.0767,-6.0924,-6.099,-6.106,-6.1142,-6.1125,-6.1209,-6.1198,-6.121,-6.123,-6.1377,-6.1416,-6.1337,-6.1594,-6.1521,-6.154,-6.1562,-6.1586,-6.1604,-6.1591,-6.1273,0,0,0,0,0,-6.0739,-6.0832,-6.0894,-6.1027,-6.1061,-6.1096,-6.1151,-6.1154,-6.1223,-6.1252,-6.1299,-6.137,-6.1466,-6.1529,-6.162,-6.179,-6.1807,-6.1865,-6.1884,-6.1899,-6.1914,-6.2008,-6.2034,-6.1753,-6.1753,-6.1753,0,0,-6.0807,-6.086,-6.0918,-6.1041,-6.1093,-6.1191,-6.112,-6.1226,-6.13,-6.1269,-6.1406,-6.1445,-6.1525,-6.1683,-6.1755,-6.1719,-6.1997,-6.1915,-6.1926,-6.1934,-6.2023,-6.205,-6.2073,-6.1762,-6.176,-6.1759,0,0,-6.0979,-6.1028,-6.1144,-6.1198,-6.1276,-6.13,-6.1328,-6.1402,-6.1425,-6.1564,-6.1543,-6.1633,-6.1798,-6.1856,-6.1907,-6.2105,-6.2084,-6.2136,-6.2231,-6.2322,-6.2344,-6.2364,-6.2434,-6.2459,-6.2152,-6.2152,-6.2152,0,-6.1052,-6.1197,-6.1206,-6.1315,-6.137,-6.1347,-6.1465,-6.1518,-6.1623,-6.1663,-6.1623,-6.183,-6.1882,-6.2053,-6.2102,-6.2145,-6.2178,-6.2124,-6.234,-6.236,-6.2378,-6.2445,-6.2472,-6.2158,-6.2157,-6.2156,-6.2156,0,-6.1284,-6.1385,-6.147,-6.1571,-6.1637,-6.175,-6.1779,-6.1845,-6.1844,-6.1872,-6.2015,-6.2078,-6.2182,-6.2224,-6.2224,-6.2396,-6.2372,-6.2336,-6.2262,-6.241,-6.2473,-6.2499,-6.2166,-6.2164,-6.2162,-6.2161,0,0,-6.1495,-6.1602,-6.1633,-6.1679,-6.1766,-6.1846,-6.1961,-6.2061,-6.2117,-6.2193,-6.2289,-6.2431,-6.2399,-6.2457,-6.2464,-6.2544,-6.2697,-6.2499,-6.2501,-6.2532,-6.2891,-6.2915,-6.2945,-6.2686,-6.2691,-6.2694,-6.2884,0,-6.1673,-6.187,-6.1884,-6.2063,-6.2157,-6.2139,-6.2239,-6.2304,-6.2336,-6.2422,-6.2458,-6.2557,-6.2508,-6.2543,-6.2622,-6.2662,-6.2769,-6.2649,-6.2776,-6.278,-6.2753,-6.2978,-6.3004,-6.3179,-6.2909,-6.2913,-6.2916,0,-6.1905,-6.1986,-6.2174,-6.225,-6.229,-6.2379,-6.2473,-6.2556,-6.2632,-6.265,-6.2716,-6.2713,-6.2833,-6.2758,-6.2924,-6.2842,-6.2896,-6.2924,-6.2932,-6.2941,-6.2855,-6.2992,-6.3235,-6.3261,-6.2955,-6.2952,-6.2949,0,-6.2038,-6.2195,-6.2328,-6.2369,-6.2461,-6.2524,-6.2566,-6.2637,-6.2697,-6.2781,-6.2821,-6.2919,-6.2972,-6.3049,-6.3073,-6.3016,-6.3239,-6.3166,-6.3257,-6.3257,-6.3302,-6.3298,-6.3555,-6.3342,-6.3341,-6.3341,-6.334,0,-6.2233,-6.2349,-6.2389,-6.247,-6.2601,-6.2618,-6.2747,-6.2786,-6.285,-6.294,-6.2933,-6.3018,-6.3047,-6.3138,-6.316,-6.3294,-6.3319,-6.3337,-6.3341,-6.3336,-6.3333,-6.3369,-6.3356,-6.3348,-6.3346,-6.3345,-6.3344,0,-6.2401,-6.2433,-6.2577,-6.2653,-6.2676,-6.2768,-6.2834,-6.2915,-6.2946,-6.3061,-6.3089,-6.3139,-6.3246,-6.3279,-6.341,-6.3424,-6.3581,-6.3575,-6.3554,-6.3554,-6.3643,-6.3633,-6.3929,-6.3969,-6.3732,-6.3734,-6.3736,0,-6.2522,-6.261,-6.2696,-6.2756,-6.28,-6.2896,-6.2957,-6.298,-6.3045,-6.314,-6.3209,-6.3315,-6.3401,-6.3575,-6.3624,-6.3724,-6.3719,-6.3817,-6.3734,-6.3727,-6.3719,-6.3712,-6.3721,-6.3831,-6.3833,-6.3835,-6.3837,0,-6.2732,-6.2744,-6.2831,-6.2927,-6.3,-6.3076,-6.3149,-6.32,-6.3233,-6.3307,-6.3416,-6.3483,-6.3617,-6.3723,-6.3825,-6.3871,-6.3861,-6.3863,-6.3889,-6.3884,-6.3867,-6.3876,-6.3594,-6.3855,-6.3853,-6.3852,-6.3851,-6.385,-6.2878,-6.2956,-6.3029,-6.3128,-6.3186,-6.3256,-6.3335,-6.3377,-6.3468,-6.3576,-6.3586,-6.3704,-6.3782,-6.3918,-6.397,-6.4065,-6.4037,-6.4075,-6.4084,-6.4093,-6.4099,-6.3855,-6.4084,-6.4084,-6.4083,-6.4083,-6.4082,0,-6.3086,-6.3133,-6.3224,-6.3327,-6.3406,-6.3389,-6.3471,-6.3538,-6.3642,-6.3714,-6.3799,-6.3927,-6.4031,-6.4089,-6.4194,-6.4258,-6.4256,-6.4285,-6.4279,-6.429,-6.4119,-6.4084,-6.4285,-6.4285,-6.4285,-6.4285,-6.4285,-6.4285,-6.3202,-6.3333,-6.3355,-6.3517,-6.3564,-6.3678,-6.3726,-6.3792,-6.3849,-6.3991,-6.4077,-6.4114,-6.4183,-6.4292,-6.4388,-6.4403,-6.4441,-6.4473,-6.4484,-6.4323,-6.4302,-6.4282,-6.425,-6.4481,-6.4482,-6.4647,-6.4649,-6.465]},{"header":{"parameterUnit":"m.s-1","parameterCategory":1,"la1":30.2991,"la2":30.254,"lo1":-89.0895,"lo2":-89.0444,"dy":0.0017,"dx":0.0017,"nx":28,"ny":28,"refTime":"2023-10-24T21:00:00:Z","depth":0,"parameterNumber":3,"parameterNumberName":"V-component_of_WINDS"},"data":[0,0,0,0,0,0,0,0,0,0,0,0,0,0,0,0,0,0,0,0,0,0,0,0,0,0,0,0,0,0,0,0,0,0,0,0,0,0,0,0,0,0,0,0,0,0,0,0,0,0,0,0,0,0,0,0,0,0,1.7102,1.7104,0,1.7236,1.7237,1.7239,1.7241,1.7239,1.7237,1.7236,1.7376,1.7381,1.7386,0,0,0,0,0,0,0,0,0,0,0,0,0,1.6854,1.6858,1.7102,1.7104,1.7106,1.7236,1.7237,1.7239,1.7241,1.7239,1.7237,1.7235,1.7374,1.738,1.7386,0,0,0,0,0,0,0,0,0,0,0,0,0,1.6972,1.686,1.7102,1.7122,1.7125,1.7235,1.7238,1.724,1.7241,1.7239,1.7236,1.7234,1.7372,1.7379,1.7387,1.7487,0,0,1.7412,1.7415,0,0,0,0,0,0,0,0,1.6965,1.6981,1.7117,1.7121,1.7124,1.7219,1.7201,1.7323,1.7242,1.7197,1.7236,1.7233,1.7326,1.7337,1.7368,1.7494,1.75,1.7412,1.7417,1.7421,1.7423,0,0,0,0,0,0,0,1.6957,1.6976,1.7155,1.7119,1.7124,1.7126,1.714,1.7224,1.7274,1.7201,1.7201,1.7217,1.7327,1.736,1.7371,1.7502,1.7412,1.7419,1.7424,1.7427,1.772,1.7723,0,0,0,0,0,0,1.6944,1.6969,1.7151,1.7159,1.7037,1.7133,1.7148,1.7191,1.7273,1.7283,1.7219,1.7217,1.7348,1.7362,1.7376,1.7501,1.7421,1.7428,1.7433,1.7717,1.7721,1.7724,0,0,0,0,0,0,1.6939,1.6961,1.7146,1.7064,1.7088,1.714,1.7188,1.7195,1.7228,1.7287,1.7296,1.7243,1.7347,1.7365,1.746,1.7506,1.7432,1.7439,1.7714,1.7719,1.7723,1.775,0,0,0,0,0,0,1.6932,1.6959,1.6996,1.7065,1.7092,1.7226,1.7191,1.72,1.7242,1.724,1.7312,1.7322,1.7346,1.7448,1.7468,1.7515,1.7445,1.771,1.7716,1.7721,1.7745,1.7755,1.7763,0,0,0,0,0,1.6923,1.6998,1.6998,1.702,1.7139,1.7228,1.7244,1.7269,1.7245,1.7284,1.7322,1.732,1.7497,1.7458,1.748,1.7531,1.7707,1.7714,1.7721,1.7741,1.7753,1.7763,0,0,0,0,0,0,1.6933,1.7007,1.7008,1.7107,1.7161,1.7228,1.7278,1.7281,1.7344,1.7339,1.7369,1.7386,1.7481,1.7515,1.747,1.7634,1.76,1.7611,1.7608,1.7619,1.7628,1.7618,1.7452,0,0,0,0,0,1.6947,1.7011,1.7073,1.7155,1.7182,1.7226,1.7265,1.728,1.7338,1.7361,1.7406,1.7464,1.7533,1.7578,1.7644,1.775,1.7767,1.7796,1.7805,1.7812,1.7822,1.7883,1.7897,1.7747,1.7747,1.7746,0,0,1.6976,1.7024,1.7063,1.7158,1.7202,1.7271,1.7245,1.7317,1.7369,1.7373,1.7466,1.7501,1.7567,1.7669,1.7716,1.7701,1.7867,1.7821,1.7826,1.7832,1.7892,1.7906,1.7918,1.7751,1.775,1.775,0,0,1.7064,1.7106,1.718,1.7225,1.7292,1.7321,1.7339,1.7406,1.743,1.7523,1.7529,1.7591,1.7709,1.7757,1.7796,1.7906,1.7907,1.7927,1.7974,1.8033,1.8045,1.8056,1.8097,1.8111,1.7937,1.7937,1.7937,0,1.7092,1.7193,1.7218,1.7292,1.7335,1.7341,1.7418,1.7461,1.7546,1.7577,1.7558,1.7708,1.7753,1.7867,1.7894,1.7925,1.7949,1.7919,1.8041,1.8052,1.8063,1.8102,1.8118,1.7939,1.7939,1.7938,1.7938,0,1.7226,1.7296,1.7348,1.7431,1.748,1.7555,1.7593,1.764,1.7651,1.7683,1.778,1.7834,1.7913,1.7941,1.7953,1.8058,1.8047,1.8035,1.8001,1.8079,1.8117,1.8132,1.7942,1.7941,1.7941,1.794,0,0,1.7322,1.7419,1.7438,1.7477,1.7553,1.7609,1.7685,1.7762,1.7803,1.7863,1.7929,1.803,1.802,1.8065,1.8082,1.8134,1.8221,1.8116,1.8118,1.8135,1.8343,1.8353,1.837,1.8222,1.8225,1.8227,1.8338,0,1.7419,1.7554,1.758,1.7698,1.7765,1.7774,1.7841,1.7896,1.7928,1.7992,1.8028,1.8099,1.8079,1.8107,1.8159,1.8199,1.8263,1.8191,1.8286,1.8289,1.827,1.839,1.84,1.8502,1.8353,1.8356,1.8357,0,1.755,1.7613,1.7738,1.7808,1.7837,1.7897,1.7971,1.8031,1.8095,1.8115,1.8166,1.8179,1.8261,1.8224,1.8339,1.8289,1.833,1.8356,1.8361,1.8371,1.8328,1.8405,1.8535,1.8551,1.8381,1.8379,1.8377,0,1.761,1.7727,1.7817,1.785,1.7933,1.7975,1.8012,1.8073,1.8119,1.8184,1.8215,1.8289,1.833,1.8388,1.8422,1.8391,1.8535,1.85,1.8556,1.8555,1.8587,1.8584,1.8726,1.861,1.861,1.861,1.8609,0,1.7717,1.7793,1.7846,1.7901,1.7989,1.8019,1.8105,1.8141,1.8196,1.8261,1.8273,1.8334,1.8373,1.844,1.8467,1.856,1.8578,1.8598,1.8604,1.8598,1.8595,1.8625,1.862,1.8614,1.8613,1.8612,1.8611,0,1.7798,1.7836,1.7936,1.8007,1.8027,1.8088,1.815,1.8206,1.8239,1.8321,1.8342,1.8394,1.8474,1.8513,1.8612,1.863,1.8736,1.8737,1.8714,1.8717,1.8772,1.8767,1.8939,1.8964,1.8829,1.8831,1.8832,0,1.7864,1.7923,1.8001,1.8046,1.8083,1.8154,1.8201,1.8235,1.8284,1.8363,1.841,1.849,1.8556,1.8683,1.8731,1.8808,1.8812,1.8867,1.8823,1.8816,1.8815,1.8812,1.8819,1.8875,1.8876,1.8877,1.8878,0,1.7978,1.7994,1.8061,1.8136,1.8192,1.8253,1.8312,1.8348,1.8392,1.8446,1.8528,1.858,1.8682,1.8762,1.8843,1.8882,1.8889,1.8892,1.8909,1.8904,1.8889,1.89,1.8737,1.8888,1.8887,1.8886,1.8886,1.8885,1.8055,1.8109,1.8173,1.8249,1.8297,1.8354,1.841,1.8451,1.852,1.8605,1.8621,1.8709,1.8775,1.8883,1.8926,1.8996,1.8984,1.9009,1.9015,1.9021,1.9025,1.8877,1.9011,1.9011,1.901,1.901,1.901,0,1.8171,1.8213,1.8282,1.8366,1.8426,1.8426,1.8493,1.8544,1.8621,1.8681,1.8746,1.8842,1.8921,1.8976,1.9057,1.9103,1.9108,1.9123,1.9121,1.9131,1.903,1.9008,1.9118,1.9118,1.9118,1.9118,1.9118,1.9118,1.8238,1.8331,1.8356,1.8474,1.8516,1.8602,1.8641,1.8694,1.8743,1.8849,1.8915,1.895,1.9009,1.9095,1.9168,1.9183,1.9213,1.9228,1.9243,1.9148,1.9137,1.9126,1.9106,1.9234,1.9234,1.9337,1.9338,1.9339]}]]